| time (UTC) | temp C | wind direction | speed KPH | gust KPH | rain 1hr cm | rain 24hr cm | rain mn cm | humidity % | barometer mb |
| 20260505041711 | 20 | 0 | 14.5 | 32.2 | 0.00 | 0.00 | 0.00 | 28 | 1009.2 |
| 20260505041351 | 20 | 0 | 14.5 | 32.2 | 0.00 | 0.00 | 0.00 | 28 | 1009.2 |
| 20260505041033 | 20 | 0 | 17.7 | 38.6 | 0.00 | 0.00 | 0.00 | 28 | 1009.2 |
| 20260505040716 | 20 | 0 | 17.7 | 38.6 | 0.00 | 0.00 | 0.00 | 28 | 1009.1 |
| 20260505035748 | 20 | 0 | 14.5 | 38.6 | 0.00 | 0.00 | 0.00 | 27 | 1009.0 |
| 20260505035431 | 20 | 0 | 16.1 | 38.6 | 0.00 | 0.00 | 0.00 | 27 | 1008.9 |
| 20260505035117 | 20 | 0 | 16.1 | 37.0 | 0.00 | 0.00 | 0.00 | 27 | 1008.9 |
| 20260505034803 | 20 | 0 | 16.1 | 37.0 | 0.00 | 0.00 | 0.00 | 27 | 1008.6 |
| 20260505034140 | 20 | 0 | 16.1 | 37.0 | 0.00 | 0.00 | 0.00 | 26 | 1008.5 |
| 20260505033520 | 20 | 0 | 14.5 | 32.2 | 0.00 | 0.00 | 0.00 | 26 | 1008.4 |
| 20260505033159 | 20 | 0 | 12.9 | 30.6 | 0.00 | 0.00 | 0.00 | 26 | 1008.5 |
| 20260505032842 | 20 | 0 | 12.9 | 30.6 | 0.00 | 0.00 | 0.00 | 25 | 1008.4 |
| 20260505032524 | 20 | 0 | 14.5 | 30.6 | 0.00 | 0.00 | 0.00 | 25 | 1008.3 |
| 20260505032207 | 20 | 0 | 11.3 | 30.6 | 0.00 | 0.00 | 0.00 | 25 | 1008.3 |
| 20260505031851 | 21 | 0 | 11.3 | 27.4 | 0.00 | 0.00 | 0.00 | 25 | 1008.2 |
| 20260505031527 | 21 | 0 | 9.7 | 29.0 | 0.00 | 0.00 | 0.00 | 25 | 1008.2 |
| 20260505031203 | 21 | 0 | 9.7 | 29.0 | 0.00 | 0.00 | 0.00 | 25 | 1008.1 |
| 20260505030848 | 21 | 0 | 11.3 | 29.0 | 0.00 | 0.00 | 0.00 | 25 | 1008.0 |
| 20260505030530 | 21 | 0 | 11.3 | 29.0 | 0.00 | 0.00 | 0.00 | 25 | 1008.0 |
| 20260505030209 | 21 | 0 | 14.5 | 29.0 | 0.00 | 0.00 | 0.00 | 25 | 1007.8 |
| 20260505025854 | 21 | 0 | 14.5 | 29.0 | 0.00 | 0.00 | 0.00 | 24 | 1007.9 |
| 20260505025534 | 21 | 0 | 14.5 | 27.4 | 0.00 | 0.00 | 0.00 | 24 | 1007.8 |
| 20260505025211 | 21 | 0 | 14.5 | 29.0 | 0.00 | 0.00 | 0.00 | 24 | 1007.8 |
| 20260505024853 | 21 | 0 | 14.5 | 29.0 | 0.00 | 0.00 | 0.00 | 24 | 1007.6 |
| 20260505024533 | 21 | 0 | 14.5 | 29.0 | 0.00 | 0.00 | 0.00 | 24 | 1007.5 |
| 20260505024211 | 21 | 0 | 16.1 | 35.4 | 0.00 | 0.00 | 0.00 | 23 | 1007.5 |
| 20260505023556 | 21 | 0 | 16.1 | 35.4 | 0.00 | 0.00 | 0.00 | 23 | 1007.4 |
| 20260505023233 | 21 | 0 | 16.1 | 35.4 | 0.00 | 0.00 | 0.00 | 22 | 1007.4 |
| 20260505022915 | 21 | 0 | 16.1 | 35.4 | 0.00 | 0.00 | 0.00 | 22 | 1007.4 |
| 20260505022555 | 21 | 0 | 16.1 | 35.4 | 0.00 | 0.00 | 0.00 | 22 | 1007.4 |
| 20260505022236 | 22 | 0 | 16.1 | 32.2 | 0.00 | 0.00 | 0.00 | 21 | 1007.4 |
| 20260505021917 | 22 | 0 | 16.1 | 32.2 | 0.00 | 0.00 | 0.00 | 21 | 1007.4 |
| 20260505021552 | 22 | 0 | 17.7 | 32.2 | 0.00 | 0.00 | 0.00 | 20 | 1007.4 |
| 20260505021234 | 22 | 0 | 17.7 | 32.2 | 0.00 | 0.00 | 0.00 | 20 | 1007.4 |
| 20260505020914 | 22 | 0 | 14.5 | 30.6 | 0.00 | 0.00 | 0.00 | 20 | 1007.4 |
| 20260505020551 | 22 | 0 | 14.5 | 30.6 | 0.00 | 0.00 | 0.00 | 20 | 1007.3 |
| 20260505020235 | 22 | 0 | 12.9 | 30.6 | 0.00 | 0.00 | 0.00 | 20 | 1007.4 |
| 20260505015911 | 22 | 0 | 11.3 | 30.6 | 0.00 | 0.00 | 0.00 | 19 | 1007.3 |
| 20260505015551 | 22 | 0 | 11.3 | 24.1 | 0.00 | 0.00 | 0.00 | 19 | 1007.3 |
| 20260505014926 | 22 | 0 | 14.5 | 37.0 | 0.00 | 0.00 | 0.00 | 19 | 1007.3 |
| 20260505014608 | 22 | 0 | 16.1 | 37.0 | 0.00 | 0.00 | 0.00 | 18 | 1007.4 |
| 20260505014245 | 22 | 0 | 16.1 | 37.0 | 0.00 | 0.00 | 0.00 | 18 | 1007.3 |
| 20260505013921 | 22 | 0 | 14.5 | 38.6 | 0.00 | 0.00 | 0.00 | 18 | 1007.3 |
| 20260505013559 | 22 | 0 | 12.9 | 38.6 | 0.00 | 0.00 | 0.00 | 17 | 1007.3 |
| 20260505013236 | 22 | 0 | 14.5 | 38.6 | 0.00 | 0.00 | 0.00 | 17 | 1007.3 |
| 20260505012613 | 22 | 0 | 16.1 | 38.6 | 0.00 | 0.00 | 0.00 | 17 | 1007.4 |
| 20260505012259 | 23 | 0 | 14.5 | 38.6 | 0.00 | 0.00 | 0.00 | 17 | 1007.3 |
| 20260505011937 | 23 | 0 | 14.5 | 30.6 | 0.00 | 0.00 | 0.00 | 17 | 1007.1 |
| 20260505011017 | 23 | 0 | 14.5 | 32.2 | 0.00 | 0.00 | 0.00 | 16 | 1007.3 |
| 20260505010654 | 23 | 0 | 14.5 | 32.2 | 0.00 | 0.00 | 0.00 | 16 | 1007.3 |
| 20260505010036 | 23 | 0 | 16.1 | 38.6 | 0.00 | 0.00 | 0.00 | 16 | 1007.3 |
| 20260505005713 | 23 | 0 | 17.7 | 38.6 | 0.00 | 0.00 | 0.00 | 15 | 1007.3 |
| 20260505005050 | 23 | 0 | 16.1 | 38.6 | 0.00 | 0.00 | 0.00 | 16 | 1007.4 |
| 20260505004736 | 23 | 0 | 12.9 | 38.6 | 0.00 | 0.00 | 0.00 | 16 | 1007.3 |
| 20260505004417 | 23 | 0 | 12.9 | 38.6 | 0.00 | 0.00 | 0.00 | 16 | 1007.3 |
| 20260505004059 | 23 | 0 | 12.9 | 35.4 | 0.00 | 0.00 | 0.00 | 17 | 1007.2 |
| 20260505003742 | 23 | 0 | 14.5 | 35.4 | 0.00 | 0.00 | 0.00 | 17 | 1007.3 |
| 20260505003417 | 23 | 0 | 16.1 | 35.4 | 0.00 | 0.00 | 0.00 | 17 | 1007.3 |
| 20260505003100 | 23 | 0 | 16.1 | 35.4 | 0.00 | 0.00 | 0.00 | 17 | 1007.3 |
| 20260505002444 | 23 | 0 | 16.1 | 35.4 | 0.00 | 0.00 | 0.00 | 18 | 1007.3 |
| 20260505002126 | 23 | 0 | 16.1 | 32.2 | 0.00 | 0.00 | 0.00 | 19 | 1007.3 |
| 20260505001809 | 23 | 0 | 16.1 | 32.2 | 0.00 | 0.00 | 0.00 | 18 | 1007.5 |
| 20260505001445 | 23 | 0 | 16.1 | 33.8 | 0.00 | 0.00 | 0.00 | 18 | 1007.4 |
| 20260505001122 | 23 | 0 | 17.7 | 33.8 | 0.00 | 0.00 | 0.00 | 18 | 1007.4 |
| 20260505000804 | 24 | 0 | 19.3 | 33.8 | 0.00 | 0.00 | 0.00 | 18 | 1007.5 |
| 20260505000439 | 24 | 0 | 17.7 | 33.8 | 0.00 | 0.00 | 0.00 | 18 | 1007.5 |
| 20260505000114 | 24 | 0 | 17.7 | 33.8 | 0.00 | 0.00 | 0.00 | 18 | 1007.4 |
| 20260504235748 | 24 | 0 | 16.1 | 32.2 | 0.00 | 0.00 | 0.00 | 18 | 1007.5 |
| 20260504235124 | 24 | 0 | 16.1 | 30.6 | 0.00 | 0.00 | 0.00 | 18 | 1007.3 |
| 20260504234507 | 24 | 0 | 14.5 | 30.6 | 0.00 | 0.00 | 0.00 | 18 | 1007.4 |
| 20260504234147 | 24 | 0 | 14.5 | 30.6 | 0.00 | 0.00 | 0.00 | 18 | 1007.4 |
| 20260504233827 | 24 | 0 | 14.5 | 30.6 | 0.00 | 0.00 | 0.00 | 17 | 1007.4 |
| 20260504233501 | 24 | 0 | 16.1 | 30.6 | 0.00 | 0.00 | 0.00 | 16 | 1007.5 |
| 20260504233147 | 24 | 0 | 16.1 | 35.4 | 0.00 | 0.00 | 0.00 | 15 | 1007.6 |
| 20260504232824 | 24 | 0 | 16.1 | 35.4 | 0.00 | 0.00 | 0.00 | 13 | 1007.5 |
| 20260504232508 | 24 | 0 | 17.7 | 35.4 | 0.00 | 0.00 | 0.00 | 13 | 1007.6 |
| 20260504232147 | 24 | 0 | 16.1 | 38.6 | 0.00 | 0.00 | 0.00 | 14 | 1007.6 |
| 20260504231228 | 24 | 0 | 19.3 | 41.8 | 0.00 | 0.00 | 0.00 | 13 | 1007.6 |
| 20260504230907 | 24 | 0 | 20.9 | 41.8 | 0.00 | 0.00 | 0.00 | 13 | 1007.5 |
| 20260504230542 | 24 | 0 | 20.9 | 41.8 | 0.00 | 0.00 | 0.00 | 13 | 1007.6 |
| 20260504230220 | 24 | 0 | 19.3 | 43.5 | 0.00 | 0.00 | 0.00 | 13 | 1007.6 |
| 20260504225905 | 24 | 0 | 19.3 | 43.5 | 0.00 | 0.00 | 0.00 | 13 | 1007.7 |
| 20260504225240 | 24 | 0 | 20.9 | 43.5 | 0.00 | 0.00 | 0.00 | 13 | 1007.7 |
| 20260504224923 | 24 | 0 | 20.9 | 43.5 | 0.00 | 0.00 | 0.00 | 13 | 1007.8 |
| 20260504224608 | 25 | 0 | 20.9 | 43.5 | 0.00 | 0.00 | 0.00 | 13 | 1007.8 |
| 20260504224247 | 25 | 0 | 17.7 | 41.8 | 0.00 | 0.00 | 0.00 | 13 | 1007.8 |
| 20260504223925 | 25 | 0 | 17.7 | 41.8 | 0.00 | 0.00 | 0.00 | 12 | 1007.7 |
| 20260504223608 | 25 | 0 | 17.7 | 41.8 | 0.00 | 0.00 | 0.00 | 13 | 1007.8 |
| 20260504222944 | 25 | 0 | 19.3 | 41.8 | 0.00 | 0.00 | 0.00 | 14 | 1007.8 |
| 20260504222622 | 25 | 0 | 20.9 | 41.8 | 0.00 | 0.00 | 0.00 | 13 | 1007.8 |
| 20260504222300 | 25 | 0 | 19.3 | 40.2 | 0.00 | 0.00 | 0.00 | 13 | 1007.8 |
| 20260504221937 | 25 | 0 | 20.9 | 40.2 | 0.00 | 0.00 | 0.00 | 12 | 1007.9 |
| 20260504221617 | 25 | 0 | 20.9 | 40.2 | 0.00 | 0.00 | 0.00 | 13 | 1007.8 |
| 20260504221252 | 25 | 0 | 22.5 | 38.6 | 0.00 | 0.00 | 0.00 | 12 | 1008.0 |
| 20260504220633 | 25 | 0 | 20.9 | 38.6 | 0.00 | 0.00 | 0.00 | 12 | 1008.0 |
| 20260504220317 | 25 | 0 | 19.3 | 46.7 | 0.00 | 0.00 | 0.00 | 11 | 1008.2 |
| 20260504215700 | 25 | 0 | 17.7 | 46.7 | 0.00 | 0.00 | 0.00 | 13 | 1008.2 |
| 20260504215337 | 25 | 0 | 19.3 | 46.7 | 0.00 | 0.00 | 0.00 | 12 | 1008.2 |
| 20260504215015 | 25 | 0 | 20.9 | 46.7 | 0.00 | 0.00 | 0.00 | 12 | 1008.2 |
| 20260504214357 | 25 | 0 | 19.3 | 43.5 | 0.00 | 0.00 | 0.00 | 13 | 1008.2 |
| 20260504213742 | 25 | 0 | 19.3 | 45.1 | 0.00 | 0.00 | 0.00 | 13 | 1008.3 |
| 20260504213425 | 25 | 0 | 20.9 | 45.1 | 0.00 | 0.00 | 0.00 | 13 | 1008.3 |
| 20260504213106 | 25 | 0 | 22.5 | 45.1 | 0.00 | 0.00 | 0.00 | 14 | 1008.2 |
| 20260504212744 | 25 | 0 | 22.5 | 45.1 | 0.00 | 0.00 | 0.00 | 15 | 1008.2 |
| 20260504212426 | 25 | 0 | 20.9 | 45.1 | 0.00 | 0.00 | 0.00 | 14 | 1008.3 |
| 20260504212102 | 25 | 0 | 19.3 | 45.1 | 0.00 | 0.00 | 0.00 | 13 | 1008.2 |
| 20260504211743 | 25 | 0 | 19.3 | 41.8 | 0.00 | 0.00 | 0.00 | 14 | 1008.4 |
| 20260504211428 | 25 | 0 | 17.7 | 41.8 | 0.00 | 0.00 | 0.00 | 15 | 1008.3 |
| 20260504210806 | 25 | 0 | 17.7 | 40.2 | 0.00 | 0.00 | 0.00 | 17 | 1008.3 |
| 20260504210149 | 25 | 0 | 20.9 | 40.2 | 0.00 | 0.00 | 0.00 | 16 | 1008.4 |
| 20260504205524 | 25 | 0 | 20.9 | 37.0 | 0.00 | 0.00 | 0.00 | 15 | 1008.5 |
| 20260504205201 | 25 | 0 | 20.9 | 37.0 | 0.00 | 0.00 | 0.00 | 14 | 1008.5 |
| 20260504204537 | 25 | 0 | 19.3 | 37.0 | 0.00 | 0.00 | 0.00 | 14 | 1008.4 |
| 20260504204215 | 25 | 0 | 19.3 | 37.0 | 0.00 | 0.00 | 0.00 | 13 | 1008.4 |
| 20260504203849 | 25 | 0 | 19.3 | 35.4 | 0.00 | 0.00 | 0.00 | 14 | 1008.4 |
| 20260504203532 | 25 | 0 | 19.3 | 35.4 | 0.00 | 0.00 | 0.00 | 12 | 1008.4 |
| 20260504203212 | 25 | 0 | 17.7 | 35.4 | 0.00 | 0.00 | 0.00 | 14 | 1008.3 |
| 20260504202851 | 25 | 0 | 19.3 | 37.0 | 0.00 | 0.00 | 0.00 | 13 | 1008.4 |
| 20260504202527 | 25 | 0 | 19.3 | 37.0 | 0.00 | 0.00 | 0.00 | 13 | 1008.4 |
| 20260504201903 | 25 | 0 | 19.3 | 37.0 | 0.00 | 0.00 | 0.00 | 16 | 1008.4 |
| 20260504201540 | 25 | 0 | 19.3 | 37.0 | 0.00 | 0.00 | 0.00 | 15 | 1008.5 |
| 20260504201217 | 25 | 0 | 19.3 | 37.0 | 0.00 | 0.00 | 0.00 | 14 | 1008.5 |
| 20260504200852 | 25 | 0 | 19.3 | 35.4 | 0.00 | 0.00 | 0.00 | 17 | 1008.3 |
| 20260504200529 | 25 | 0 | 17.7 | 35.4 | 0.00 | 0.00 | 0.00 | 16 | 1008.3 |
| 20260504200207 | 25 | 0 | 17.7 | 38.6 | 0.00 | 0.00 | 0.00 | 19 | 1008.4 |
| 20260504195852 | 25 | 0 | 16.1 | 38.6 | 0.00 | 0.00 | 0.00 | 19 | 1008.5 |
| 20260504195530 | 25 | 0 | 19.3 | 38.6 | 0.00 | 0.00 | 0.00 | 18 | 1008.5 |
| 20260504195205 | 25 | 0 | 20.9 | 38.6 | 0.00 | 0.00 | 0.00 | 18 | 1008.5 |
| 20260504194549 | 25 | 0 | 19.3 | 38.6 | 0.00 | 0.00 | 0.00 | 20 | 1008.6 |
| 20260504193930 | 25 | 0 | 22.5 | 38.6 | 0.00 | 0.00 | 0.00 | 19 | 1008.6 |
| 20260504193615 | 25 | 0 | 20.9 | 38.6 | 0.00 | 0.00 | 0.00 | 20 | 1008.6 |
| 20260504193250 | 25 | 0 | 19.3 | 38.6 | 0.00 | 0.00 | 0.00 | 19 | 1008.6 |
| 20260504192925 | 24 | 0 | 17.7 | 38.6 | 0.00 | 0.00 | 0.00 | 20 | 1008.6 |
| 20260504192611 | 24 | 0 | 16.1 | 38.6 | 0.00 | 0.00 | 0.00 | 20 | 1008.8 |
| 20260504192247 | 24 | 0 | 17.7 | 38.6 | 0.00 | 0.00 | 0.00 | 21 | 1008.8 |
| 20260504191921 | 23 | 0 | 19.3 | 38.6 | 0.00 | 0.00 | 0.00 | 21 | 1008.7 |
| 20260504191558 | 23 | 0 | 19.3 | 38.6 | 0.00 | 0.00 | 0.00 | 21 | 1008.8 |
| 20260504190934 | 24 | 0 | 17.7 | 32.2 | 0.00 | 0.00 | 0.00 | 23 | 1008.9 |
| 20260504190312 | 23 | 0 | 17.7 | 30.6 | 0.00 | 0.00 | 0.00 | 23 | 1009.1 |
| 20260504185957 | 23 | 0 | 17.7 | 29.0 | 0.00 | 0.00 | 0.00 | 23 | 1009.1 |
| 20260504185636 | 23 | 0 | 16.1 | 29.0 | 0.00 | 0.00 | 0.00 | 22 | 1009.3 |
| 20260504185312 | 23 | 0 | 16.1 | 35.4 | 0.00 | 0.00 | 0.00 | 24 | 1009.2 |
| 20260504184948 | 23 | 0 | 17.7 | 35.4 | 0.00 | 0.00 | 0.00 | 24 | 1009.4 |
| 20260504184629 | 23 | 0 | 20.9 | 35.4 | 0.00 | 0.00 | 0.00 | 24 | 1009.4 |
| 20260504184310 | 23 | 0 | 22.5 | 35.4 | 0.00 | 0.00 | 0.00 | 26 | 1009.4 |
| 20260504183946 | 23 | 0 | 20.9 | 35.4 | 0.00 | 0.00 | 0.00 | 24 | 1009.3 |
| 20260504183623 | 23 | 0 | 20.9 | 35.4 | 0.00 | 0.00 | 0.00 | 25 | 1009.3 |
| 20260504183301 | 23 | 0 | 19.3 | 32.2 | 0.00 | 0.00 | 0.00 | 26 | 1009.4 |
| 20260504182943 | 23 | 0 | 20.9 | 32.2 | 0.00 | 0.00 | 0.00 | 27 | 1009.4 |
| 20260504182625 | 22 | 0 | 20.9 | 41.8 | 0.00 | 0.00 | 0.00 | 27 | 1009.5 |
| 20260504182304 | 22 | 0 | 20.9 | 41.8 | 0.00 | 0.00 | 0.00 | 25 | 1009.5 |
| 20260504181943 | 22 | 0 | 20.9 | 41.8 | 0.00 | 0.00 | 0.00 | 26 | 1009.4 |
| 20260504181626 | 22 | 0 | 20.9 | 41.8 | 0.00 | 0.00 | 0.00 | 27 | 1009.4 |
| 20260504181003 | 22 | 0 | 20.9 | 41.8 | 0.00 | 0.00 | 0.00 | 26 | 1009.5 |
| 20260504180646 | 22 | 0 | 19.3 | 35.4 | 0.00 | 0.00 | 0.00 | 29 | 1009.5 |
| 20260504180327 | 22 | 0 | 19.3 | 35.4 | 0.00 | 0.00 | 0.00 | 28 | 1009.5 |
| 20260504180005 | 22 | 0 | 19.3 | 35.4 | 0.00 | 0.00 | 0.00 | 28 | 1009.4 |
| 20260504175646 | 22 | 0 | 19.3 | 35.4 | 0.00 | 0.00 | 0.00 | 29 | 1009.5 |
| 20260504175327 | 22 | 0 | 19.3 | 35.4 | 0.00 | 0.00 | 0.00 | 28 | 1009.4 |
| 20260504175012 | 22 | 0 | 17.7 | 30.6 | 0.00 | 0.00 | 0.00 | 29 | 1009.6 |
| 20260504174650 | 22 | 0 | 17.7 | 27.4 | 0.00 | 0.00 | 0.00 | 29 | 1009.5 |
| 20260504174328 | 22 | 0 | 17.7 | 35.4 | 0.00 | 0.00 | 0.00 | 30 | 1009.6 |
| 20260504173704 | 21 | 0 | 19.3 | 35.4 | 0.00 | 0.00 | 0.00 | 32 | 1009.5 |
| 20260504173042 | 21 | 0 | 17.7 | 35.4 | 0.00 | 0.00 | 0.00 | 32 | 1009.4 |
| 20260504172720 | 21 | 0 | 17.7 | 35.4 | 0.00 | 0.00 | 0.00 | 32 | 1009.3 |
| 20260504172403 | 21 | 0 | 17.7 | 33.8 | 0.00 | 0.00 | 0.00 | 34 | 1009.3 |
| 20260504172044 | 21 | 0 | 19.3 | 33.8 | 0.00 | 0.00 | 0.00 | 34 | 1009.3 |
| 20260504171421 | 21 | 0 | 19.3 | 33.8 | 0.00 | 0.00 | 0.00 | 35 | 1009.3 |
| 20260504171056 | 21 | 0 | 19.3 | 33.8 | 0.00 | 0.00 | 0.00 | 34 | 1009.3 |
| 20260504170730 | 21 | 0 | 17.7 | 32.2 | 0.00 | 0.00 | 0.00 | 34 | 1009.2 |
| 20260504170408 | 21 | 0 | 17.7 | 32.2 | 0.00 | 0.00 | 0.00 | 34 | 1009.2 |
| 20260504160441 | 19 | 0 | 11.3 | 27.4 | 0.00 | 0.00 | 0.00 | 39 | 1009.2 |
| 20260504160122 | 19 | 0 | 11.3 | 25.7 | 0.00 | 0.00 | 0.00 | 38 | 1009.2 |
| 20260504150835 | 17 | 0 | 8.0 | 17.7 | 0.00 | 0.00 | 0.00 | 41 | 1009.1 |
| 20260504150520 | 17 | 0 | 6.4 | 16.1 | 0.00 | 0.00 | 0.00 | 41 | 1009.0 |
| 20260504150200 | 17 | 0 | 8.0 | 16.1 | 0.00 | 0.00 | 0.00 | 41 | 1008.9 |
| 20260504141300 | 17 | 0 | 6.4 | 14.5 | 0.00 | 0.00 | 0.00 | 42 | 1008.2 |
| 20260504140945 | 17 | 0 | 6.4 | 14.5 | 0.00 | 0.00 | 0.00 | 42 | 1008.3 |
| 20260504140328 | 17 | 0 | 3.2 | 14.5 | 0.00 | 0.00 | 0.00 | 42 | 1008.3 |
| 20260504130737 | 17 | 0 | 6.4 | 17.7 | 0.00 | 0.00 | 0.00 | 40 | 1007.5 |
| 20260504130413 | 17 | 0 | 8.0 | 25.7 | 0.00 | 0.00 | 0.00 | 40 | 1007.5 |
| 20260504110551 | 18 | 0 | 9.7 | 17.7 | 0.00 | 0.00 | 0.00 | 37 | 1007.7 |
| 20260504110228 | 18 | 0 | 8.0 | 17.7 | 0.00 | 0.00 | 0.00 | 37 | 1007.9 |
| 20260504100607 | 20 | 0 | 11.3 | 22.5 | 0.00 | 0.00 | 0.00 | 32 | 1007.6 |
| 20260504100253 | 20 | 0 | 11.3 | 24.1 | 0.00 | 0.00 | 0.00 | 31 | 1007.7 |
| 20260504081756 | 22 | 0 | 3.2 | 6.4 | 0.00 | 0.00 | 0.00 | 22 | 1007.4 |
| 20260504081437 | 22 | 0 | 3.2 | 6.4 | 0.00 | 0.00 | 0.00 | 22 | 1007.3 |
| 20260504081119 | 22 | 0 | 3.2 | 11.3 | 0.00 | 0.00 | 0.00 | 22 | 1007.4 |
| 20260504080759 | 22 | 0 | 3.2 | 11.3 | 0.00 | 0.00 | 0.00 | 21 | 1007.4 |
| 20260504080133 | 22 | 0 | 4.8 | 11.3 | 0.00 | 0.00 | 0.00 | 21 | 1007.3 |
| 20260504070202 | 23 | 0 | 0.0 | 4.8 | 0.00 | 0.00 | 0.00 | 20 | 1006.6 |
| 20260504060246 | 24 | 0 | 8.0 | 17.7 | 0.00 | 0.00 | 0.00 | 18 | 1006.1 |
| 20260504050724 | 25 | 0 | 12.9 | 25.7 | 0.00 | 0.00 | 0.00 | 16 | 1006.5 |
| 20260504050404 | 25 | 0 | 12.9 | 22.5 | 0.00 | 0.00 | 0.00 | 16 | 1006.5 |
| 20260504045732 | 25 | 0 | 11.3 | 22.5 | 0.00 | 0.00 | 0.00 | 15 | 1006.4 |
| 20260504045415 | 25 | 0 | 11.3 | 22.5 | 0.00 | 0.00 | 0.00 | 15 | 1006.3 |
| 20260504045057 | 25 | 0 | 11.3 | 20.9 | 0.00 | 0.00 | 0.00 | 15 | 1006.4 |
| 20260504044741 | 25 | 0 | 9.7 | 20.9 | 0.00 | 0.00 | 0.00 | 15 | 1006.4 |
| 20260504044422 | 25 | 0 | 9.7 | 20.9 | 0.00 | 0.00 | 0.00 | 16 | 1006.6 |
| 20260504043800 | 25 | 0 | 11.3 | 22.5 | 0.00 | 0.00 | 0.00 | 16 | 1006.5 |
| 20260504043136 | 25 | 0 | 12.9 | 22.5 | 0.00 | 0.00 | 0.00 | 16 | 1006.6 |
| 20260504042818 | 25 | 0 | 11.3 | 22.5 | 0.00 | 0.00 | 0.00 | 16 | 1006.5 |
| 20260504042450 | 25 | 0 | 9.7 | 22.5 | 0.00 | 0.00 | 0.00 | 16 | 1006.4 |
| 20260504042128 | 26 | 0 | 9.7 | 19.3 | 0.00 | 0.00 | 0.00 | 16 | 1006.3 |